| time (UTC) | temp F | wind direction | speed knots | gust knots | rain 1hr in | rain 24hr in | rain mn in | humidity % | barometer mb |
| 20260506001525 | 72 | 315 | 7.0 | 12.2 | 0.00 | 0.00 | 0.00 | 34 | 1007.5 |
| 20260506000004 | 71 | 262 | 6.1 | 13.0 | 0.00 | 0.00 | 0.00 | 35 | 1007.6 |
| 20260505234509 | 74 | 269 | 7.0 | 18.2 | 0.00 | 0.00 | 0.00 | 28 | 1007.5 |
| 20260505233012 | 76 | 214 | 7.0 | 16.5 | 0.00 | 0.00 | 0.00 | 25 | 1006.9 |
| 20260505231521 | 76 | 214 | 9.6 | 18.2 | 0.00 | 0.00 | 0.00 | 24 | 1006.6 |
| 20260505230007 | 76 | 231 | 10.4 | 19.1 | 0.00 | 0.00 | 0.00 | 23 | 1006.7 |
| 20260505224509 | 76 | 284 | 6.1 | 16.5 | 0.00 | 0.00 | 0.00 | 24 | 1006.7 |
| 20260505223014 | 76 | 217 | 7.8 | 13.9 | 0.00 | 0.00 | 0.00 | 24 | 1007.0 |
| 20260505221518 | 76 | 209 | 7.0 | 18.2 | 0.00 | 0.00 | 0.00 | 26 | 1007.2 |
| 20260505220030 | 76 | 233 | 11.3 | 21.7 | 0.00 | 0.00 | 0.00 | 25 | 1007.3 |
| 20260505214505 | 77 | 236 | 13.0 | 20.9 | 0.00 | 0.00 | 0.00 | 24 | 1007.6 |
| 20260505213012 | 76 | 282 | 10.4 | 16.5 | 0.00 | 0.00 | 0.00 | 25 | 1007.7 |
| 20260505193023 | 72 | 220 | 1.7 | 7.0 | 0.00 | 0.00 | 0.00 | 33 | 1009.4 |
| 20260505191515 | 71 | 296 | 3.5 | 9.6 | 0.00 | 0.00 | 0.00 | 35 | 1009.5 |
| 20260505190009 | 69 | 155 | 4.3 | 10.4 | 0.00 | 0.00 | 0.00 | 36 | 1010.1 |
| 20260505184508 | 69 | 157 | 2.6 | 5.2 | 0.00 | 0.00 | 0.00 | 36 | 1010.2 |
| 20260505183006 | 69 | 106 | 1.7 | 4.3 | 0.00 | 0.00 | 0.00 | 35 | 1010.1 |
| 20260505181507 | 69 | 134 | 2.6 | 5.2 | 0.00 | 0.00 | 0.00 | 36 | 1010.2 |
| 20260505180017 | 69 | 125 | 1.7 | 7.8 | 0.00 | 0.00 | 0.00 | 35 | 1010.3 |
| 20260505174508 | 70 | 123 | 3.5 | 7.8 | 0.00 | 0.00 | 0.00 | 33 | 1010.5 |
| 20260505173010 | 70 | 117 | 4.3 | 7.8 | 0.00 | 0.00 | 0.00 | 33 | 1010.4 |
| 20260505171508 | 69 | 90 | 2.6 | 6.1 | 0.00 | 0.00 | 0.00 | 36 | 1010.7 |
| 20260505170010 | 68 | 130 | 4.3 | 7.8 | 0.00 | 0.00 | 0.00 | 35 | 1010.8 |
| 20260505164508 | 70 | 58 | 0.9 | 3.5 | 0.00 | 0.00 | 0.00 | 31 | 1010.9 |
| 20260505163010 | 70 | 332 | 3.5 | 7.0 | 0.00 | 0.00 | 0.00 | 30 | 1010.9 |
| 20260505151512 | 68 | 278 | 2.6 | 7.8 | 0.00 | 0.00 | 0.00 | 31 | 1010.9 |
| 20260505124516 | 63 | 289 | 4.3 | 7.0 | 0.00 | 0.00 | 0.00 | 38 | 1010.1 |
| 20260505123028 | 64 | 289 | 5.2 | 7.8 | 0.00 | 0.00 | 0.00 | 36 | 1009.8 |
| 20260505121505 | 64 | 302 | 3.5 | 6.1 | 0.00 | 0.00 | 0.00 | 34 | 1009.7 |
| 20260505120015 | 65 | 226 | 6.1 | 9.6 | 0.00 | 0.00 | 0.00 | 33 | 1009.2 |
| 20260505114512 | 65 | 274 | 1.7 | 5.2 | 0.00 | 0.00 | 0.00 | 33 | 1009.2 |
| 20260505113018 | 65 | 311 | 2.6 | 7.8 | 0.00 | 0.00 | 0.00 | 32 | 1009.1 |
| 20260505111521 | 65 | 288 | 4.3 | 8.7 | 0.00 | 0.00 | 0.00 | 33 | 1009.3 |
| 20260505101531 | 66 | 322 | 2.6 | 6.1 | 0.00 | 0.00 | 0.00 | 31 | 1009.2 |
| 20260505100050 | 67 | 285 | 1.7 | 4.3 | 0.00 | 0.00 | 0.00 | 30 | 1009.1 |
| 20260505094506 | 67 | 274 | 2.6 | 5.2 | 0.00 | 0.00 | 0.00 | 30 | 1009.2 |
| 20260505093016 | 66 | 274 | 4.3 | 8.7 | 0.00 | 0.00 | 0.00 | 31 | 1008.9 |
| 20260505091519 | 62 | 268 | 1.7 | 3.5 | 0.00 | 0.00 | 0.00 | 35 | 1009.0 |
| 20260505090022 | 62 | 323 | 0.9 | 2.6 | 0.00 | 0.00 | 0.00 | 36 | 1008.9 |
| 20260505084505 | 63 | 326 | 1.7 | 5.2 | 0.00 | 0.00 | 0.00 | 35 | 1008.8 |
| 20260505083012 | 64 | 345 | 0.9 | 1.7 | 0.00 | 0.00 | 0.00 | 34 | 1008.6 |
| 20260505081514 | 64 | 314 | 0.9 | 1.7 | 0.00 | 0.00 | 0.00 | 32 | 1008.8 |
| 20260505080022 | 64 | 314 | 0.9 | 3.5 | 0.00 | 0.00 | 0.00 | 31 | 1008.6 |
| 20260505074522 | 63 | 65 | 2.6 | 3.5 | 0.00 | 0.00 | 0.00 | 33 | 1008.4 |
| 20260505073027 | 64 | 132 | 0.0 | 1.7 | 0.00 | 0.00 | 0.00 | 33 | 1008.3 |
| 20260505071514 | 65 | 107 | 0.9 | 1.7 | 0.00 | 0.00 | 0.00 | 32 | 1008.2 |
| 20260505070020 | 67 | 107 | 0.9 | 3.5 | 0.00 | 0.00 | 0.00 | 29 | 1008.5 |
| 20260505064524 | 68 | 250 | 0.9 | 4.3 | 0.00 | 0.00 | 0.00 | 24 | 1008.3 |
| 20260505063026 | 69 | 274 | 2.6 | 5.2 | 0.00 | 0.00 | 0.00 | 24 | 1008.2 |
| 20260505061520 | 68 | 260 | 1.7 | 6.1 | 0.00 | 0.00 | 0.00 | 24 | 1008.2 |
| 20260505060016 | 67 | 243 | 1.7 | 6.1 | 0.00 | 0.00 | 0.00 | 26 | 1008.5 |
| 20260505054520 | 67 | 226 | 2.6 | 6.1 | 0.00 | 0.00 | 0.00 | 27 | 1008.5 |
| 20260505053036 | 68 | 186 | 2.6 | 7.0 | 0.00 | 0.00 | 0.00 | 26 | 1008.2 |
| 20260505051537 | 69 | 225 | 3.5 | 7.0 | 0.00 | 0.00 | 0.00 | 25 | 1008.0 |
| 20260505041526 | 69 | 203 | 1.7 | 4.3 | 0.00 | 0.00 | 0.00 | 26 | 1008.2 |
| 20260505040030 | 70 | 160 | 2.6 | 6.1 | 0.00 | 0.00 | 0.00 | 25 | 1008.0 |
| 20260505034520 | 71 | 198 | 1.7 | 5.2 | 0.00 | 0.00 | 0.00 | 25 | 1008.1 |
| 20260505033022 | 72 | 200 | 1.7 | 4.3 | 0.00 | 0.00 | 0.00 | 24 | 1008.0 |
| 20260505031531 | 73 | 191 | 3.5 | 6.1 | 0.00 | 0.00 | 0.00 | 23 | 1007.8 |
| 20260505030014 | 73 | 218 | 3.5 | 6.1 | 0.00 | 0.00 | 0.00 | 22 | 1007.8 |
| 20260505023022 | 75 | 195 | 4.3 | 7.0 | 0.00 | 0.00 | 0.00 | 19 | 1007.6 |
| 20260505021506 | 76 | 212 | 2.6 | 7.8 | 0.00 | 0.00 | 0.00 | 18 | 1007.4 |
| 20260505020010 | 76 | 244 | 2.6 | 6.1 | 0.00 | 0.00 | 0.00 | 18 | 1007.2 |
| 20260505014514 | 77 | 266 | 3.5 | 7.0 | 0.00 | 0.00 | 0.00 | 18 | 1007.0 |
| 20260505013023 | 78 | 229 | 2.6 | 8.7 | 0.00 | 0.00 | 0.00 | 18 | 1006.8 |